Vorticity
nan nan nan nan nan nan nan nan nan nan nan nan nan nan nan nan nan nan nan nan nan nan nan nan nan nan nan nan nan nan nan nan nan nan nan nan nan nan nan nan nan nan nan nan nan
nan 6 6 6 7 7 7 7 7 6 6 7 8 8 9 15 20 8 9 8 12 5 2 3 10 6 4 6 7 8 8 7 8 11 13 9 5 5 9 -1 4 12 14 12 nan
nan 7 7 6 7 7 7 7 7 6 7 8 9 9 9 15 14 7 11 15 8 -1 2 9 9 6 6 7 7 10 10 7 11 17 12 7 4 9 7 4 11 10 5 4 nan
nan 7 7 6 7 7 8 8 7 6 8 9 9 10 16 19 6 3 9 13 7 5 6 9 7 6 7 8 10 8 8 13 13 15 11 7 2 6 3 12 18 10 5 4 nan
nan 7 7 7 7 8 8 8 7 7 9 10 10 13 16 10 6 4 16 17 5 6 7 7 8 9 9 7 8 7 7 9 15 13 9 6 5 4 8 15 14 9 6 4 nan
nan 7 6 7 7 8 8 8 7 9 12 12 11 12 12 4 8 12 15 10 6 7 7 8 9 8 5 7 8 8 8 4 6 10 10 9 7 5 13 12 8 6 4 4 nan
nan 7 7 7 7 8 8 8 10 14 15 15 13 10 7 7 4 7 7 5 8 9 9 11 11 9 7 9 7 7 7 5 6 7 10 6 3 10 15 8 5 4 5 5 nan
nan 6 7 6 7 8 9 11 17 24 22 16 9 6 6 9 4 8 9 7 8 8 9 11 9 7 8 8 6 7 8 8 9 6 6 1 7 16 12 6 6 6 5 6 nan
nan 7 7 7 7 8 9 16 24 23 17 7 3 7 9 10 10 13 10 8 7 8 8 6 5 7 10 5 6 6 8 10 8 8 6 8 8 15 10 4 5 7 6 6 nan
nan 7 7 7 8 8 19 22 15 10 7 3 7 9 10 5 8 9 11 9 8 7 4 5 6 7 7 4 7 10 8 7 10 11 9 10 9 12 10 5 5 5 5 7 nan
nan 7 7 7 7 13 24 18 13 7 4 7 3 5 4 7 12 10 11 7 6 9 7 7 6 6 9 9 9 9 5 10 13 9 6 9 12 14 9 4 4 6 7 6 nan
nan 8 7 8 6 23 19 11 9 7 10 12 5 8 9 11 11 11 9 7 10 10 6 6 9 10 10 10 5 6 5 12 10 7 9 6 14 19 11 8 5 4 4 5 nan
nan 8 7 7 24 25 11 7 5 13 9 11 13 10 15 10 9 10 4 7 10 10 9 3 11 9 5 6 5 5 8 8 9 10 8 9 17 14 11 8 8 7 7 7 nan
nan 7 5 22 25 9 14 1 11 12 11 14 10 11 10 7 10 9 8 7 11 11 5 8 9 6 5 9 6 7 16 10 7 8 5 12 12 14 16 13 7 8 8 9 nan
nan 8 14 19 13 8 4 5 15 12 9 9 10 10 12 11 8 8 8 14 12 9 8 11 6 6 6 13 8 11 13 10 9 8 8 10 7 11 14 18 17 11 9 11 nan
nan 10 18 16 10 5 0 15 13 8 9 8 10 11 6 8 8 11 9 6 10 8 9 7 6 9 9 8 17 8 0 4 6 7 9 6 11 11 8 10 16 18 14 12 nan
nan 14 16 9 6 8 14 16 8 7 10 11 10 14 6 5 11 13 9 4 9 8 6 5 5 5 10 5 10 6 3 5 7 8 7 11 10 10 12 9 6 11 14 15 nan
nan 25 20 8 3 8 15 13 7 7 7 8 13 17 11 2 5 13 12 1 5 10 11 12 8 8 7 9 6 10 8 9 8 8 9 10 11 10 9 7 8 10 10 12 nan
nan 24 11 13 13 9 11 8 8 6 5 11 15 8 7 7 9 10 13 8 4 5 7 9 7 12 11 12 13 8 10 9 11 8 8 8 12 8 10 12 12 11 10 8 nan
nan 10 11 15 13 7 9 8 8 5 7 12 10 13 14 8 6 10 10 10 9 5 7 12 7 9 11 4 8 16 12 6 7 7 9 10 10 11 11 15 12 10 9 10 nan
nan 8 12 13 9 10 11 8 9 9 9 8 10 11 13 12 11 13 4 8 14 9 7 6 9 9 9 13 5 8 3 7 7 9 10 7 14 12 4 10 12 9 9 10 nan
nan 12 9 7 9 11 13 9 7 11 10 10 9 10 13 10 10 10 8 11 19 12 6 4 7 7 10 10 11 11 14 7 9 10 6 9 7 7 11 13 14 12 13 13 nan
nan 12 11 13 10 9 9 10 9 8 8 10 11 10 11 13 8 9 8 15 14 5 11 6 5 10 10 6 10 11 8 9 10 11 10 6 6 3 7 10 12 14 12 13 nan
nan 13 8 10 11 12 9 10 11 9 9 9 11 11 12 12 13 13 8 13 12 6 11 8 5 10 5 7 9 12 11 8 5 10 7 7 4 1 3 6 9 13 16 17 nan
nan 9 11 11 7 9 10 10 9 9 10 13 10 7 12 14 12 11 11 7 11 14 10 10 5 7 8 10 11 15 14 10 7 9 10 12 6 3 9 13 14 13 16 16 nan
nan 9 10 10 11 9 10 11 10 7 9 9 5 5 10 9 6 4 9 11 8 11 9 10 15 9 8 10 11 9 12 11 11 8 12 8 8 9 16 17 12 14 13 12 nan
nan nan nan nan nan nan nan nan nan nan nan nan nan nan nan nan nan nan nan nan nan nan nan nan nan nan nan nan nan nan nan nan nan nan nan nan nan nan nan nan nan nan nan nan nan
CAPE
2 1 2 2 1 2 2 2 2 2 3 3 0 0 1 2 0 0 0 0 0 221 548 251 386 284 269 40 193 19 307 274 142 22 219 152 71 66 134 172 156 201 147 1 262
3 1 0 1 1 1 3 3 3 1 3 2 0 0 1 3 0 0 0 0 515 1085 0 0 0 30 51 54 97 244 242 104 60 96 236 190 85 109 72 114 223 275 165 70 113
3 2 1 1 1 1 2 3 1 3 3 1 0 2 1 0 0 0 468 89 1527 1029 0 0 0 0 22 13 74 254 257 94 117 109 222 197 164 82 24 51 250 274 153 24 106
1 1 2 1 1 1 0 2 3 4 1 0 1 2 0 0 0 0 892 647 1065 2 0 0 0 5 22 73 72 206 185 200 180 205 202 231 180 91 14 23 122 288 242 265 309
0 0 2 2 2 1 3 2 4 2 0 0 2 0 0 0 0 0 985 551 0 0 0 0 0 3 76 60 61 157 101 184 94 123 213 192 223 138 52 53 203 244 287 324 310
0 0 0 1 1 1 2 1 3 1 0 1 1 0 0 0 0 0 1 0 0 0 0 0 0 0 0 1 16 72 157 133 219 116 64 130 135 74 62 201 257 234 307 344 378
0 0 0 0 1 1 1 2 4 1 2 2 0 0 0 0 0 0 0 0 0 0 0 0 0 0 0 33 31 2 49 47 237 148 45 98 91 64 92 228 316 349 363 336 426
0 0 0 0 0 1 1 2 2 2 1 0 0 0 0 0 0 0 0 0 0 0 0 0 0 0 11 4 0 0 0 22 49 137 96 51 189 128 45 285 351 384 409 427 495
0 0 0 0 0 0 0 0 0 0 0 0 0 0 0 0 0 0 0 0 0 0 0 0 0 0 4 24 1 0 4 15 2 83 150 117 196 162 37 198 351 361 467 485 596
0 0 0 0 0 0 0 0 0 0 0 0 0 0 0 0 0 0 0 0 0 0 0 0 0 0 0 0 26 1 26 62 46 210 32 134 132 130 66 47 129 223 216 311 337
0 0 0 0 0 0 0 0 0 0 0 0 0 0 0 0 0 0 0 0 0 0 0 0 0 0 0 0 0 0 5 20 45 172 168 28 234 200 109 50 76 68 38 54 97
4 1 1 1 1 0 0 0 0 0 0 0 0 0 0 0 0 0 0 0 0 0 0 0 0 0 0 0 9 21 45 70 34 216 137 276 277 118 186 185 120 89 80 68 48
1 1 1 0 0 0 0 0 0 0 0 0 0 0 0 0 0 0 0 0 0 0 0 0 0 0 0 0 22 13 9 43 67 75 116 89 132 187 176 177 153 146 54 35 45
0 0 0 1 0 0 0 0 0 0 0 0 0 0 0 0 0 0 0 0 0 0 0 0 0 0 0 0 0 0 2 21 88 106 95 27 15 0 227 272 224 208 245 223 91
2 0 0 0 0 0 0 0 0 0 0 0 0 0 0 0 0 0 0 0 0 0 0 0 0 0 0 0 0 0 14 81 111 83 17 0 62 21 0 326 489 381 363 365 343
1 1 1 0 0 0 0 0 0 0 0 0 0 0 0 0 0 0 0 0 0 0 0 0 0 0 0 0 0 0 0 0 0 39 51 0 2 43 93 261 286 376 358 336 308
0 0 3 1 0 0 0 0 0 0 0 0 0 0 0 0 0 0 0 0 0 0 0 0 0 0 0 0 0 0 84 225 139 21 1 0 2 87 1 0 75 261 304 258 383
0 0 0 0 0 0 0 0 0 0 0 0 0 0 0 0 0 0 0 0 0 0 0 0 0 0 0 0 12 4 103 205 70 49 14 0 35 87 1 0 0 22 143 265 214
0 0 0 0 0 0 0 0 0 0 0 0 0 0 0 0 0 0 0 0 0 0 0 0 0 0 0 0 9 5 126 0 35 0 6 0 23 2 1 67 41 92 126 177 215
0 0 0 0 0 0 0 0 0 0 0 0 0 0 0 0 0 0 0 0 0 0 0 0 0 0 0 0 0 22 0 33 16 39 0 0 0 20 77 195 277 267 278 493 686
0 0 0 0 0 0 0 0 0 0 0 0 0 0 0 0 0 0 0 0 0 0 0 0 0 0 0 0 0 0 0 0 5 0 0 0 0 62 138 8 71 233 243 323 1003
0 0 0 0 0 0 0 0 0 0 0 0 0 0 0 0 0 0 0 0 0 0 0 0 0 0 0 0 0 0 0 0 72 5 0 0 0 0 0 0 0 0 8 42 1060
0 0 0 0 0 0 0 0 0 0 0 0 0 0 0 0 0 0 0 0 0 0 0 0 0 0 0 0 0 0 0 0 0 0 0 0 0 0 19 159 0 0 0 7 677
0 0 0 0 0 0 0 0 0 0 0 0 0 0 0 0 0 0 0 0 0 0 0 0 0 0 0 0 0 0 0 0 0 0 0 0 0 0 459 364 27 234 17 8 642
0 0 0 0 0 0 0 0 0 0 0 0 0 0 0 0 0 0 0 0 0 0 0 0 0 0 0 0 0 0 0 0 0 0 0 0 0 352 766 500 309 347 220 404 603
0 0 0 0 0 0 0 0 0 0 0 0 0 0 0 0 0 0 0 0 0 0 0 0 0 0 0 0 0 0 0 0 0 0 0 0 556 931 1242 1083 547 539 649 767 866
0 0 0 0 0 0 0 0 0 0 0 0 0 0 0 0 0 0 0 0 0 0 0 0 0 0 0 0 0 0 17 32 94 0 16 128 902 1215 1703 2022 2272 1980 1873 2140 2098